Location: Anjeux
(47.8815°N, 6.2076°E)
Time: 10:26:51
(UTC+00:00)

AO-27 - Pass Details

Date: 16 December 2021
Orbit: 784 x 798 km, 98.9° (Epoch: 24 January)

Event Time Altitude Azimuth Distance (km) Brightness Sun altitude
Rises 18:39:24 0° 185° (S) 3,289 11.0 -28.4°
Reaches altitude 10° 18:41:51 10° 192° (SSW) 2,365 10.3 -28.8°
Maximum altitude 18:46:45 40° 262° (W) 1,160 8.9 -29.6°
Drops below altitude 10° 18:51:42 10° 332° (NNW) 2,381 10.4 -30.4°
Sets 18:54:11 0° 340° (NNW) 3,314 11.1 -30.8°
